RH
58 59 62 69 73 76 79 82 87 90 95 98 95 97 97 94 92 85 78 75 78 76
56 57 58 56 56 62 69 74 78 84 93 92 89 91 92 90 82 79 77 76 74 71
63 62 63 64 62 59 61 65 68 77 84 86 83 85 85 77 73 71 72 72 71 68
55 57 57 57 59 61 61 64 69 73 74 73 74 77 75 76 75 73 73 73 69 64
35 36 38 43 45 50 58 65 68 72 73 73 71 72 79 77 70 68 70 68 60 53
32 34 34 36 37 40 48 55 60 58 59 64 70 70 69 68 64 64 59 55 48 42
31 33 33 33 34 37 39 43 48 48 50 53 54 51 50 51 52 47 44 39 38 38
31 30 31 31 34 36 36 38 41 43 45 45 48 50 51 47 44 43 39 38 38 40
33 32 32 35 35 36 37 37 38 40 42 44 46 46 47 46 43 41 41 42 43 45
37 37 37 37 40 41 42 43 44 45 47 48 48 47 46 46 44 46 47 47 48 49
37 37 37 39 43 47 49 50 52 52 51 51 51 51 50 49 49 50 51 52 53 54
48 46 46 45 45 50 50 52 54 55 56 58 56 53 51 53 55 56 56 59 59 57
57 54 52 51 50 54 58 58 59 60 60 60 58 58 58 60 61 63 63 65 63 60
58 57 56 55 54 56 62 63 63 64 65 66 66 67 67 68 69 70 71 68 68 66